| time (UTC) | temp F | wind direction | speed MPH | gust MPH | rain 1hr in | rain 24hr in | rain mn in | humidity % | barometer mb |
| 20260906085016 | 80 | 0.0 | 0.0 | 0.00 | 0.00 | 0.00 | 78 | 1012.4 | |
| 20260906084016 | 81 | 0.0 | 1.0 | 0.00 | 0.00 | 0.00 | 77 | 1012.4 | |
| 20260906083016 | 81 | 0.0 | 1.0 | 0.00 | 0.00 | 0.00 | 77 | 1012.3 | |
| 20260906082036 | 81 | 0.0 | 1.0 | 0.00 | 0.00 | 0.00 | 77 | 1012.4 | |
| 20260906081016 | 81 | 0.0 | 3.0 | 0.00 | 0.00 | 0.00 | 77 | 1012.5 | |
| 20260906080016 | 81 | 0.0 | 0.0 | 0.00 | 0.00 | 0.00 | 76 | 1012.4 | |
| 20260906075016 | 81 | 0.0 | 2.0 | 0.00 | 0.00 | 0.00 | 76 | 1012.5 | |
| 20260906074016 | 82 | 158 | 2.0 | 5.0 | 0.00 | 0.00 | 0.00 | 76 | 1012.5 |
| 20260906073016 | 82 | 135 | 1.0 | 3.0 | 0.00 | 0.00 | 0.00 | 75 | 1012.7 |
| 20260906072016 | 82 | 135 | 1.0 | 5.0 | 0.00 | 0.00 | 0.00 | 75 | 1012.7 |
| 20260906071036 | 82 | 158 | 3.0 | 6.0 | 0.00 | 0.00 | 0.00 | 75 | 1012.8 |
| 20260906070016 | 82 | 158 | 3.0 | 10.0 | 0.00 | 0.00 | 0.00 | 74 | 1012.7 |
| 20260906065036 | 83 | 158 | 1.0 | 4.0 | 0.00 | 0.00 | 0.00 | 74 | 1012.9 |
| 20260906064016 | 83 | 158 | 4.0 | 7.0 | 0.00 | 0.00 | 0.00 | 74 | 1013.1 |
| 20260906063016 | 83 | 158 | 4.0 | 8.0 | 0.00 | 0.00 | 0.00 | 73 | 1013.1 |
| 20260906062016 | 83 | 158 | 1.0 | 3.0 | 0.00 | 0.00 | 0.00 | 73 | 1013.2 |
| 20260906061036 | 83 | 158 | 1.0 | 4.0 | 0.00 | 0.00 | 0.00 | 73 | 1013.2 |
| 20260906060016 | 83 | 0.0 | 1.0 | 0.00 | 0.00 | 0.00 | 73 | 1013.1 | |
| 20260906055016 | 83 | 158 | 3.0 | 6.0 | 0.00 | 0.00 | 0.00 | 73 | 1013.0 |
| 20260906054016 | 83 | 158 | 2.0 | 7.0 | 0.00 | 0.00 | 0.00 | 73 | 1012.9 |
| 20260906053016 | 83 | 135 | 1.0 | 3.0 | 0.00 | 0.00 | 0.00 | 73 | 1012.9 |
| 20260906052016 | 84 | 0.0 | 1.0 | 0.00 | 0.00 | 0.00 | 72 | 1012.9 | |
| 20260906051016 | 84 | 0.0 | 3.0 | 0.00 | 0.00 | 0.00 | 72 | 1013.0 | |
| 20260906050016 | 84 | 135 | 2.0 | 5.0 | 0.00 | 0.00 | 0.00 | 71 | 1013.1 |
| 20260906045016 | 84 | 135 | 1.0 | 4.0 | 0.00 | 0.00 | 0.00 | 71 | 1013.0 |
| 20260906044016 | 85 | 135 | 2.0 | 5.0 | 0.00 | 0.00 | 0.00 | 70 | 1012.9 |
| 20260906043016 | 85 | 113 | 4.0 | 9.0 | 0.00 | 0.00 | 0.00 | 70 | 1012.8 |
| 20260906042016 | 85 | 135 | 7.0 | 12.0 | 0.00 | 0.00 | 0.00 | 69 | 1012.7 |
| 20260906041016 | 85 | 135 | 4.0 | 9.0 | 0.00 | 0.00 | 0.00 | 69 | 1012.7 |
| 20260906040016 | 85 | 135 | 4.0 | 10.0 | 0.00 | 0.00 | 0.00 | 70 | 1012.8 |
| 20260906035016 | 85 | 135 | 2.0 | 4.0 | 0.00 | 0.00 | 0.00 | 70 | 1012.8 |
| 20260906034016 | 85 | 113 | 3.0 | 6.0 | 0.00 | 0.00 | 0.00 | 70 | 1012.8 |
| 20260906033016 | 86 | 113 | 4.0 | 7.0 | 0.00 | 0.00 | 0.00 | 69 | 1012.8 |
| 20260906032056 | 86 | 113 | 3.0 | 7.0 | 0.00 | 0.00 | 0.00 | 69 | 1013.0 |
| 20260906031016 | 86 | 113 | 3.0 | 7.0 | 0.00 | 0.00 | 0.00 | 69 | 1012.8 |
| 20260906030016 | 86 | 113 | 4.0 | 8.0 | 0.00 | 0.00 | 0.00 | 68 | 1012.6 |
| 20260906025016 | 87 | 90 | 4.0 | 8.0 | 0.00 | 0.00 | 0.00 | 67 | 1012.6 |
| 20260906024016 | 87 | 113 | 5.0 | 10.0 | 0.00 | 0.00 | 0.00 | 66 | 1012.4 |
| 20260906023016 | 87 | 113 | 4.0 | 8.0 | 0.00 | 0.00 | 0.00 | 65 | 1012.1 |
| 20260906022016 | 88 | 113 | 6.0 | 10.0 | 0.00 | 0.00 | 0.00 | 64 | 1012.0 |
| 20260906021016 | 88 | 113 | 5.0 | 10.0 | 0.00 | 0.00 | 0.00 | 63 | 1011.9 |
| 20260906020016 | 89 | 113 | 6.0 | 10.0 | 0.00 | 0.00 | 0.00 | 61 | 1011.6 |
| 20260906015016 | 89 | 113 | 9.0 | 14.0 | 0.00 | 0.00 | 0.00 | 60 | 1011.6 |
| 20260906014036 | 90 | 90 | 7.0 | 10.0 | 0.00 | 0.00 | 0.00 | 57 | 1011.4 |
| 20260906013036 | 91 | 90 | 10.0 | 14.0 | 0.00 | 0.00 | 0.00 | 54 | 1011.2 |
| 20260906012016 | 92 | 113 | 3.0 | 12.0 | 0.00 | 0.00 | 0.00 | 50 | 1010.9 |
| 20260906011016 | 93 | 113 | 2.0 | 7.0 | 0.00 | 0.00 | 0.00 | 49 | 1010.8 |
| 20260906010016 | 94 | 113 | 3.0 | 7.0 | 0.00 | 0.00 | 0.00 | 48 | 1010.7 |
| 20260906005016 | 94 | 113 | 5.0 | 8.0 | 0.00 | 0.00 | 0.00 | 47 | 1010.8 |
| 20260906004016 | 95 | 113 | 6.0 | 11.0 | 0.00 | 0.00 | 0.00 | 46 | 1010.8 |
| 20260906003036 | 95 | 113 | 9.0 | 14.0 | 0.00 | 0.00 | 0.00 | 45 | 1010.7 |
| 20260906002016 | 96 | 113 | 7.0 | 12.0 | 0.00 | 0.00 | 0.00 | 44 | 1010.7 |
| 20260906001016 | 97 | 113 | 6.0 | 9.0 | 0.00 | 0.00 | 0.00 | 42 | 1010.6 |
| 20260906000016 | 97 | 113 | 3.0 | 8.0 | 0.00 | 0.00 | 0.00 | 41 | 1010.5 |
| 20260905235016 | 97 | 68 | 3.0 | 6.0 | 0.00 | 0.00 | 0.00 | 41 | 1010.5 |
| 20260905234016 | 97 | 90 | 4.0 | 9.0 | 0.00 | 0.00 | 0.00 | 41 | 1010.4 |
| 20260905233016 | 97 | 68 | 3.0 | 6.0 | 0.00 | 0.00 | 0.00 | 41 | 1010.4 |
| 20260905232016 | 97 | 135 | 3.0 | 9.0 | 0.00 | 0.00 | 0.00 | 41 | 1010.4 |
| 20260905231016 | 97 | 113 | 4.0 | 11.0 | 0.00 | 0.00 | 0.00 | 41 | 1010.5 |
| 20260905230016 | 98 | 90 | 5.0 | 10.0 | 0.00 | 0.00 | 0.00 | 41 | 1010.4 |
| 20260905225015 | 98 | 90 | 3.0 | 9.0 | 0.00 | 0.00 | 0.00 | 41 | 1010.5 |
| 20260905224016 | 98 | 90 | 2.0 | 8.0 | 0.00 | 0.00 | 0.00 | 41 | 1010.3 |
| 20260905223015 | 98 | 45 | 4.0 | 9.0 | 0.00 | 0.00 | 0.00 | 40 | 1010.4 |
| 20260905222015 | 98 | 23 | 2.0 | 5.0 | 0.00 | 0.00 | 0.00 | 41 | 1010.4 |
| 20260905221016 | 98 | 338 | 3.0 | 9.0 | 0.00 | 0.00 | 0.00 | 41 | 1010.4 |
| 20260905220016 | 98 | 68 | 7.0 | 12.0 | 0.00 | 0.00 | 0.00 | 40 | 1010.6 |
| 20260905215016 | 98 | 23 | 5.0 | 11.0 | 0.00 | 0.00 | 0.00 | 40 | 1010.6 |
| 20260905214016 | 98 | 68 | 5.0 | 13.0 | 0.00 | 0.00 | 0.00 | 40 | 1010.7 |
| 20260905213016 | 98 | 113 | 3.0 | 10.0 | 0.00 | 0.00 | 0.00 | 39 | 1010.9 |
| 20260905212017 | 99 | 90 | 2.0 | 9.0 | 0.00 | 0.00 | 0.00 | 39 | 1011.0 |
| 20260905211036 | 99 | 90 | 3.0 | 8.0 | 0.00 | 0.00 | 0.00 | 38 | 1011.2 |
| 20260905210016 | 99 | 135 | 5.0 | 10.0 | 0.00 | 0.00 | 0.00 | 39 | 1011.4 |
| 20260905205016 | 100 | 158 | 3.0 | 9.0 | 0.00 | 0.00 | 0.00 | 40 | 1011.6 |
| 20260905204016 | 100 | 135 | 3.0 | 9.0 | 0.00 | 0.00 | 0.00 | 39 | 1011.6 |
| 20260905203036 | 99 | 135 | 3.0 | 12.0 | 0.00 | 0.00 | 0.00 | 39 | 1011.7 |
| 20260905202016 | 99 | 90 | 3.0 | 8.0 | 0.00 | 0.00 | 0.00 | 39 | 1011.9 |
| 20260905201015 | 99 | 135 | 5.0 | 10.0 | 0.00 | 0.00 | 0.00 | 40 | 1011.9 |
| 20260905200016 | 99 | 151 | 4.0 | 0.0 | 0.00 | 0.00 | 0.00 | 41 | 1012.1 |
| 20260905195015 | 98 | 135 | 3.0 | 10.0 | 0.00 | 0.00 | 0.00 | 42 | 1012.3 |
| 20260905194016 | 97 | 0 | 1.0 | 4.0 | 0.00 | 0.00 | 0.00 | 43 | 1012.5 |
| 20260905193016 | 97 | 0 | 1.0 | 5.0 | 0.00 | 0.00 | 0.00 | 43 | 1012.6 |
| 20260905192016 | 98 | 113 | 4.0 | 9.0 | 0.00 | 0.00 | 0.00 | 42 | 1012.8 |
| 20260905191016 | 99 | 90 | 3.0 | 7.0 | 0.00 | 0.00 | 0.00 | 41 | 1013.0 |
| 20260905190015 | 98 | 135 | 6.0 | 13.0 | 0.00 | 0.00 | 0.00 | 42 | 1013.1 |
| 20260905185015 | 98 | 113 | 2.0 | 6.0 | 0.00 | 0.00 | 0.00 | 41 | 1013.3 |
| 20260905184016 | 99 | 158 | 1.0 | 7.0 | 0.00 | 0.00 | 0.00 | 41 | 1013.6 |
| 20260905183016 | 97 | 23 | 1.0 | 6.0 | 0.00 | 0.00 | 0.00 | 43 | 1013.6 |
| 20260905182036 | 98 | 113 | 3.0 | 8.0 | 0.00 | 0.00 | 0.00 | 41 | 1013.8 |
| 20260905181015 | 97 | 158 | 1.0 | 10.0 | 0.00 | 0.00 | 0.00 | 42 | 1013.9 |
| 20260905180015 | 97 | 90 | 3.0 | 8.0 | 0.00 | 0.00 | 0.00 | 42 | 1014.1 |
| 20260905175015 | 97 | 158 | 5.0 | 11.0 | 0.00 | 0.00 | 0.00 | 44 | 1014.4 |
| 20260905174015 | 97 | 68 | 4.0 | 8.0 | 0.00 | 0.00 | 0.00 | 43 | 1014.3 |
| 20260905173016 | 97 | 135 | 4.0 | 12.0 | 0.00 | 0.00 | 0.00 | 46 | 1014.5 |
| 20260905172015 | 96 | 158 | 3.0 | 11.0 | 0.00 | 0.00 | 0.00 | 47 | 1014.6 |
| 20260905171015 | 95 | 135 | 4.0 | 10.0 | 0.00 | 0.00 | 0.00 | 48 | 1014.6 |
| 20260905170056 | 95 | 113 | 3.0 | 10.0 | 0.00 | 0.00 | 0.00 | 48 | 1014.6 |
| 20260905165016 | 95 | 113 | 3.0 | 11.0 | 0.00 | 0.00 | 0.00 | 48 | 1014.8 |
| 20260905164015 | 94 | 135 | 3.0 | 9.0 | 0.00 | 0.00 | 0.00 | 49 | 1014.8 |
| 20260905163016 | 94 | 113 | 3.0 | 10.0 | 0.00 | 0.00 | 0.00 | 51 | 1014.9 |
| 20260905162015 | 94 | 113 | 6.0 | 10.0 | 0.00 | 0.00 | 0.00 | 50 | 1014.8 |
| 20260905161015 | 94 | 158 | 1.0 | 9.0 | 0.00 | 0.00 | 0.00 | 52 | 1014.8 |
| 20260905160016 | 93 | 0.0 | 1.0 | 0.00 | 0.00 | 0.00 | 53 | 1014.8 | |
| 20260905155016 | 93 | 158 | 1.0 | 8.0 | 0.00 | 0.00 | 0.00 | 53 | 1014.9 |
| 20260905154035 | 92 | 0.0 | 0.0 | 0.00 | 0.00 | 0.00 | 57 | 1014.9 | |
| 20260905153015 | 91 | 158 | 1.0 | 6.0 | 0.00 | 0.00 | 0.00 | 57 | 1014.9 |
| 20260905152015 | 90 | 158 | 1.0 | 5.0 | 0.00 | 0.00 | 0.00 | 59 | 1014.7 |
| 20260905151016 | 89 | 158 | 2.0 | 7.0 | 0.00 | 0.00 | 0.00 | 59 | 1014.7 |
| 20260905150055 | 88 | 158 | 1.0 | 5.0 | 0.00 | 0.00 | 0.00 | 64 | 1014.7 |
| 20260905145015 | 87 | 0.0 | 2.0 | 0.00 | 0.00 | 0.00 | 67 | 1014.7 | |
| 20260905144016 | 87 | 0.0 | 2.0 | 0.00 | 0.00 | 0.00 | 68 | 1014.8 | |
| 20260905143015 | 86 | 0.0 | 1.0 | 0.00 | 0.00 | 0.00 | 71 | 1014.8 | |
| 20260905142016 | 85 | 0.0 | 1.0 | 0.00 | 0.00 | 0.00 | 72 | 1014.8 | |
| 20260905141035 | 84 | 0.0 | 1.0 | 0.00 | 0.00 | 0.00 | 75 | 1014.6 | |
| 20260905140015 | 83 | 0.0 | 1.0 | 0.00 | 0.00 | 0.00 | 76 | 1014.6 | |
| 20260905135015 | 82 | 0.0 | 1.0 | 0.00 | 0.00 | 0.00 | 79 | 1014.6 | |
| 20260905134015 | 81 | 0.0 | 5.0 | 0.00 | 0.00 | 0.00 | 81 | 1014.4 | |
| 20260905133015 | 80 | 158 | 1.0 | 6.0 | 0.00 | 0.00 | 0.00 | 84 | 1014.3 |
| 20260905132015 | 79 | 0.0 | 4.0 | 0.00 | 0.00 | 0.00 | 86 | 1014.1 | |
| 20260905131015 | 78 | 0.0 | 4.0 | 0.00 | 0.00 | 0.00 | 88 | 1014.0 | |
| 20260905130015 | 77 | 158 | 1.0 | 6.0 | 0.00 | 0.00 | 0.00 | 89 | 1013.9 |
| 20260905125016 | 77 | 0.0 | 5.0 | 0.00 | 0.00 | 0.00 | 89 | 1013.8 | |
| 20260905124015 | 76 | 0.0 | 2.0 | 0.00 | 0.00 | 0.00 | 89 | 1013.6 | |
| 20260905123035 | 76 | 0.0 | 0.0 | 0.00 | 0.00 | 0.00 | 88 | 1013.7 | |
| 20260905122016 | 76 | 0.0 | 1.0 | 0.00 | 0.00 | 0.00 | 88 | 1013.7 | |
| 20260905121015 | 76 | 0.0 | 0.0 | 0.00 | 0.00 | 0.00 | 86 | 1013.7 | |
| 20260905120055 | 77 | 0.0 | 0.0 | 0.00 | 0.00 | 0.00 | 86 | 1013.7 | |
| 20260905115015 | 77 | 0.0 | 0.0 | 0.00 | 0.00 | 0.00 | 85 | 1013.7 | |
| 20260905114015 | 77 | 0.0 | 0.0 | 0.00 | 0.00 | 0.00 | 85 | 1013.6 | |
| 20260905113015 | 77 | 0.0 | 0.0 | 0.00 | 0.00 | 0.00 | 85 | 1013.7 | |
| 20260905112015 | 78 | 0.0 | 0.0 | 0.00 | 0.00 | 0.00 | 84 | 1013.7 | |
| 20260905111016 | 78 | 0.0 | 0.0 | 0.00 | 0.00 | 0.00 | 84 | 1013.8 | |
| 20260905110015 | 78 | 0.0 | 0.0 | 0.00 | 0.00 | 0.00 | 84 | 1013.8 | |
| 20260905105015 | 78 | 0.0 | 0.0 | 0.00 | 0.00 | 0.00 | 84 | 1013.7 | |
| 20260905104016 | 78 | 0.0 | 1.0 | 0.00 | 0.00 | 0.00 | 84 | 1013.6 | |
| 20260905103015 | 78 | 0.0 | 1.0 | 0.00 | 0.00 | 0.00 | 84 | 1013.6 | |
| 20260905102015 | 79 | 0.0 | 0.0 | 0.00 | 0.00 | 0.00 | 83 | 1013.6 | |
| 20260905101015 | 79 | 0.0 | 1.0 | 0.00 | 0.00 | 0.00 | 83 | 1013.4 | |
| 20260905100035 | 79 | 158 | 2.0 | 10.0 | 0.00 | 0.00 | 0.00 | 83 | 1013.5 |
| 20260905095015 | 79 | 158 | 1.0 | 6.0 | 0.00 | 0.00 | 0.00 | 82 | 1013.4 |
| 20260905094035 | 79 | 0.0 | 3.0 | 0.00 | 0.00 | 0.00 | 82 | 1013.5 | |
| 20260905093015 | 79 | 0.0 | 6.0 | 0.00 | 0.00 | 0.00 | 82 | 1013.6 | |
| 20260905092015 | 80 | 158 | 2.0 | 6.0 | 0.00 | 0.00 | 0.00 | 82 | 1013.7 |
| 20260905091015 | 80 | 158 | 1.0 | 5.0 | 0.00 | 0.00 | 0.00 | 81 | 1013.6 |
| 20260905090055 | 80 | 0.0 | 3.0 | 0.00 | 0.00 | 0.00 | 81 | 1013.7 |